This is the latest recevied weather packets stored in our database for station/object K3RUP-1. If no packets are shown the sender has not sent any weather packets the latest 10 day(s).
| Time | Temp. | Humidity | Pressure | Rain* | Wind** | Luminosity | Snow |
|---|---|---|---|---|---|---|---|
| 1788563112 | 26.67° C | 88% | 1010.5 hPa | 0 mm | - | 7 W/m² | - |
| 1788562808 | 27.22° C | 87% | 1010.5 hPa | 0 mm | - | 10 W/m² | - |
| 1788562505 | 26.67° C | 87% | 1010.6 hPa | 0 mm | - | 12 W/m² | - |
| 1788562204 | 27.22° C | 87% | 1010.3 hPa | 0 mm | - | 14 W/m² | - |
| 1788561900 | 26.67° C | 87% | 1010.5 hPa | 0 mm | - | 16 W/m² | - |
| 1788561600 | 27.22° C | 88% | 1010.3 hPa | 0 mm | - | 16 W/m² | - |
| 1788561299 | 27.22° C | 87% | 1010.5 hPa | 0 mm | - | 21 W/m² | - |
| 1788560995 | 26.67° C | 87% | 1010.2 hPa | 0 mm | - | 27 W/m² | - |
| 1788560690 | 26.67° C | 86% | 1010.6 hPa | 0 mm | - | 34 W/m² | - |
| 1788560385 | 26.67° C | 86% | 1010.7 hPa | 0 mm | - | 29 W/m² | - |
| 1788560079 | 26.67° C | 87% | 1010.9 hPa | 0 mm | - | 23 W/m² | - |
| 1788559775 | 27.22° C | 86% | 1011.1 hPa | 0 mm | - | 20 W/m² | - |
| 1788559474 | 27.22° C | 85% | 1011.1 hPa | 0 mm | - | 18 W/m² | - |
| 1788559170 | 27.78° C | 85% | 1011.3 hPa | 0 mm | - | 17 W/m² | - |
| 1788558864 | 27.78° C | 85% | 1011.3 hPa | 0 mm | - | 19 W/m² | - |
| 1788558560 | 27.78° C | 84% | 1011.5 hPa | 0 mm | - | 19 W/m² | - |
| 1788558256 | 28.33° C | 82% | 1011.2 hPa | 0 mm | - | 20 W/m² | - |
| 1788557955 | 28.33° C | 80% | 1011 hPa | 0 mm | - | 22 W/m² | - |
| 1788557649 | 28.33° C | 79% | 1011 hPa | 0 mm | - | 23 W/m² | - |
| 1788557345 | 28.33° C | 79% | 1011.2 hPa | 0 mm | - | 26 W/m² | - |
| 1788557044 | 28.89° C | 78% | 1011.1 hPa | 0 mm | - | 32 W/m² | - |
| 1788556741 | 28.89° C | 76% | 1011.3 hPa | 0 mm | - | 39 W/m² | - |
| 1788556435 | 29.44° C | 73% | 1011.2 hPa | 0 mm | - | 45 W/m² | - |
| 1788556130 | 29.44° C | 73% | 1011.1 hPa | 0 mm | - | 49 W/m² | - |
| 1788555830 | 29.44° C | 71% | 1011.2 hPa | 0 mm | - | 68 W/m² | - |
* Rain latest hour (hover to see other rain measurements)
** Current wind speed in m/s (hover to see current wind gust speed)